Terug naar catalogus

SSU 1 DEB

ActiefPO
NORAD 7938·DEBRIS·🇺🇸 United States

Gelanceerd Jun 8, 1975 vanaf Vandenberg Space Force Base

Loading…

Volgende Passages (komende 24 uur)

TLE

VersSource: Space-Track

Epoch: Sep 14, 2026, 02:08 UTC

1 07938U 75051D   26257.08899407  .00000037  00000-0  22897-3 0  9993
2 07938  94.9785 123.8164 0039713  76.7165  77.8726 12.72244283379473

Volg SSU 1 DEB in realtime met AllMySat

Download on the App Store